Welcome to Hicks Airfield

Driving Safety »



  • Current KAFW METAR
    (5.8nm NE) VFR
    KAFW 221753Z 30010KT 10SM CLR 23/02 A2980 RMK AO2 SLP081 T02330022 10233 20161 50001
  • Flappings Newsletter
    The official newsletter of HAPA.
    Read »
  • Property Owner's Portal
    Create an account on our owner's portal for access to secure documents.
    Log-in »